Tracking 29487 objects as of 11-Sep-2024
HD Live streaming from Space Station
objects crossing your sky now

FENGYUN 1C DEB

Track FENGYUN 1C DEB now!
10-day predictions


NORAD ID: 30857
Int'l Code: 1999-025AWT
Perigee: 765.9 km
Apogee: 850.6 km
Inclination: 99.0 °
Period: 100.9 minutes
Semi major axis: 7179 km
RCS: 0.0138 m2 (small)
Launch date: May 10, 1999
Source: People's Republic of China (PRC)
Launch site: Taiyaun Space Center, China (TSC)

Note: This is SATELLITE DEBRIS
Your satellite tracking list
Your tracking list is empty




NASA's NSSDC Master Catalog

Two Line Element Set (TLE):
1 30857U 99025AWT 24254.43327023  .00021049  00000-0  84549-2 0  9997
2 30857  98.9627 216.4859 0058972 200.1483 159.7369 14.27194297901398
Source of the keplerian elements: AFSPC